Flag for U.S.A. Weather past 2 weeks in Berkeley, California, U.S.A.

Now
54 °F

Overcast.


Feels Like: 51 °F
Forecast: 55 / 64 °F
Wind: 10 mph from West

Location: Metro Oakland International Airport

Current Time: May 23, 2015 at 5:08:36 AM

Latest Report: May 23, 2015 at 3:53 AM


Visibility: 10 mi

Pressure: 30.07 "Hg

Humidity: 86%

Dew point: 50 °F

Location of BerkeleyLocation

Historic Weather in Berkeley — Graph

°F

Berkeley temperature yesterday

Maximum temperature yesterday: 62 °F (at 11:53 AM)
Minimum temperature yesterday: 56 °F (at 4:53 AM)
Average temperature yesterday: 58 °F

Past Weeks' High & Low Weather Summary

 TemperatureHumidityPressure
High65 °F (May 8, 1:53 PM)90% (May 20, 10:53 PM)30.12 "Hg (May 20, 10:53 PM)
Low46 °F (May 8, 4:53 AM)43% (May 12, 1:53 PM)29.79 "Hg (May 8, 3:53 AM)
Average57 °F73%29.98 "Hg
* Reported May 8 3:53 AM — May 23 3:53 AM, Berkeley, Weather by CustomWeather, © 2015

Note: Actual official high and low records may vary slightly from our data, if they occured in-between our weather recording intervals... More about our weather records

Advertising

Berkeley weather history for previous 24 hours

 ConditionsComfort  
Time TempWeatherWind HumidityBarometerVisibility
3:53 AM
Sat, May 23
54 °FOvercast.10 mph86%30.07 "Hg10 mi
2:53 AM55 °FDrizzle. Overcast.10 mph83%30.07 "Hg9 mi
1:53 AM56 °FOvercast.12 mph81%30.07 "Hg10 mi
12:53 AM56 °FOvercast.10 mph81%30.08 "Hg10 mi
11:53 PM
Fri, May 22
56 °FOvercast.13 mph81%30.07 "Hg10 mi
10:53 PM57 °FOvercast.10 mph78%30.08 "Hg10 mi
9:53 PM56 °FMostly cloudy.15 mph81%30.07 "Hg10 mi
8:53 PM57 °FMostly cloudy.14 mph78%30.06 "Hg10 mi
7:53 PM57 °FMostly cloudy.14 mph78%30.05 "Hg10 mi
6:53 PM58 °FMostly cloudy.17 mph72%30.03 "Hg10 mi
5:53 PM60 °FPartly sunny.16 mph67%30.04 "Hg10 mi
4:53 PM60 °FMostly cloudy.13 mph72%30.04 "Hg10 mi
3:53 PM61 °FMostly cloudy.12 mph72%30.03 "Hg10 mi
2:53 PM61 °FOvercast.13 mph72%30.03 "Hg10 mi
1:53 PM62 °FOvercast.14 mph70%30.03 "Hg10 mi
12:53 PM61 °FOvercast.10 mph72%30.03 "Hg10 mi
11:53 AM62 °FOvercast.13 mph70%30.03 "Hg10 mi
10:53 AM60 °FMore clouds than sun.8 mph72%30.03 "Hg10 mi
9:53 AM60 °FPartly sunny.10 mph72%30.03 "Hg10 mi
8:53 AM59 °FPartly sunny.8 mph75%30.02 "Hg10 mi
7:53 AM57 °FOvercast.8 mph78%30.01 "Hg10 mi
6:53 AM56 °FOvercast.12 mph81%30.00 "Hg10 mi
5:53 AM56 °FMostly cloudy.14 mph77%29.99 "Hg10 mi
Weather by CustomWeather, © 2015

See weather overviewHow to use our weather pages